| time (UTC) | temp F | wind direction | speed knots | gust knots | rain 1hr in | rain 24hr in | rain mn in | humidity % | barometer mb |
| 20260505024138 | 54 | 144 | 0.9 | 7.0 | 0.00 | 0.00 | 0.00 | 68 | 1038.1 |
| 20260505023636 | 54 | 170 | 0.0 | 7.0 | 0.00 | 0.00 | 0.00 | 68 | 1037.8 |
| 20260505023135 | 54 | 201 | 1.7 | 7.8 | 0.00 | 0.00 | 0.00 | 68 | 1037.8 |
| 20260505022633 | 54 | 169 | 3.5 | 7.8 | 0.00 | 0.00 | 0.00 | 68 | 1037.8 |
| 20260505022133 | 54 | 121 | 0.9 | 5.2 | 0.00 | 0.00 | 0.00 | 67 | 1038.1 |
| 20260505021630 | 55 | 150 | 0.9 | 5.2 | 0.00 | 0.00 | 0.00 | 67 | 1038.1 |
| 20260505021128 | 54 | 163 | 1.7 | 5.2 | 0.00 | 0.00 | 0.00 | 67 | 1038.1 |
| 20260505020628 | 55 | 158 | 0.9 | 5.2 | 0.00 | 0.00 | 0.00 | 66 | 1038.1 |
| 20260505020125 | 54 | 154 | 0.0 | 3.5 | 0.00 | 0.00 | 0.00 | 66 | 1038.1 |
| 20260505015624 | 55 | 147 | 0.9 | 7.0 | 0.00 | 0.00 | 0.00 | 66 | 1038.1 |
| 20260505014620 | 55 | 182 | 0.0 | 3.5 | 0.00 | 0.00 | 0.00 | 65 | 1038.1 |
| 20260505014119 | 55 | 148 | 0.9 | 3.5 | 0.00 | 0.00 | 0.00 | 65 | 1038.1 |
| 20260505013616 | 55 | 161 | 0.9 | 7.0 | 0.00 | 0.00 | 0.00 | 64 | 1038.1 |
| 20260505013116 | 55 | 155 | 0.0 | 7.0 | 0.00 | 0.00 | 0.00 | 64 | 1038.1 |
| 20260505012614 | 55 | 153 | 0.9 | 3.5 | 0.00 | 0.00 | 0.00 | 64 | 1037.8 |
| 20260505012114 | 55 | 211 | 2.6 | 6.1 | 0.00 | 0.00 | 0.00 | 63 | 1038.1 |
| 20260505011610 | 55 | 157 | 1.7 | 8.7 | 0.00 | 0.00 | 0.00 | 63 | 1037.8 |
| 20260505011109 | 55 | 254 | 4.3 | 8.7 | 0.00 | 0.00 | 0.00 | 63 | 1037.8 |
| 20260505010607 | 56 | 249 | 4.3 | 6.1 | 0.00 | 0.00 | 0.00 | 63 | 1037.5 |
| 20260505010106 | 56 | 172 | 0.9 | 6.1 | 0.00 | 0.00 | 0.00 | 62 | 1037.5 |
| 20260505005604 | 56 | 149 | 0.0 | 6.1 | 0.00 | 0.00 | 0.00 | 62 | 1037.1 |
| 20260505004100 | 56 | 173 | 0.9 | 7.8 | 0.00 | 0.00 | 0.00 | 60 | 1037.1 |
| 20260505003558 | 57 | 176 | 1.7 | 7.8 | 0.00 | 0.00 | 0.00 | 60 | 1036.8 |
| 20260505003057 | 57 | 165 | 3.5 | 6.1 | 0.00 | 0.00 | 0.00 | 59 | 1037.1 |
| 20260505002556 | 57 | 168 | 0.0 | 7.0 | 0.00 | 0.00 | 0.00 | 59 | 1036.8 |
| 20260505002055 | 57 | 131 | 1.7 | 7.8 | 0.00 | 0.00 | 0.00 | 58 | 1036.8 |
| 20260505001552 | 57 | 212 | 3.5 | 7.8 | 0.00 | 0.00 | 0.00 | 57 | 1036.4 |
| 20260505001051 | 57 | 232 | 3.5 | 7.0 | 0.00 | 0.00 | 0.00 | 57 | 1036.4 |
| 20260505000549 | 58 | 236 | 2.6 | 6.1 | 0.00 | 0.00 | 0.00 | 56 | 1036.8 |
| 20260505000059 | 58 | 260 | 3.5 | 8.7 | 0.00 | 0.00 | 0.00 | 55 | 1036.4 |
| 20260504235547 | 58 | 183 | 0.9 | 7.0 | 0.00 | 0.00 | 0.00 | 54 | 1036.4 |
| 20260504235045 | 58 | 154 | 1.7 | 7.0 | 0.00 | 0.00 | 0.00 | 53 | 1036.1 |
| 20260504234543 | 59 | 178 | 3.5 | 8.7 | 0.00 | 0.00 | 0.00 | 52 | 1036.1 |
| 20260504234055 | 59 | 184 | 2.6 | 8.7 | 0.00 | 0.00 | 0.00 | 51 | 1036.4 |
| 20260504233540 | 60 | 194 | 1.7 | 9.6 | 0.00 | 0.00 | 0.00 | 50 | 1036.1 |
| 20260504233039 | 60 | 180 | 3.5 | 9.6 | 0.00 | 0.00 | 0.00 | 49 | 1036.4 |
| 20260504232539 | 61 | 183 | 2.6 | 6.1 | 0.00 | 0.00 | 0.00 | 48 | 1036.1 |
| 20260504231534 | 61 | 271 | 3.5 | 7.8 | 0.00 | 0.00 | 0.00 | 46 | 1036.1 |
| 20260504231034 | 62 | 146 | 3.5 | 7.8 | 0.00 | 0.00 | 0.00 | 45 | 1035.8 |
| 20260504230033 | 63 | 163 | 3.5 | 9.6 | 0.00 | 0.00 | 0.00 | 44 | 1035.8 |
| 20260504225530 | 63 | 230 | 1.7 | 7.0 | 0.00 | 0.00 | 0.00 | 44 | 1035.8 |
| 20260504225029 | 63 | 243 | 2.6 | 7.0 | 0.00 | 0.00 | 0.00 | 43 | 1035.4 |
| 20260504224527 | 63 | 162 | 1.7 | 8.7 | 0.00 | 0.00 | 0.00 | 42 | 1035.4 |
| 20260504224025 | 63 | 136 | 4.3 | 9.6 | 0.00 | 0.00 | 0.00 | 42 | 1035.4 |
| 20260504223524 | 63 | 210 | 3.5 | 14.8 | 0.00 | 0.00 | 0.00 | 42 | 1035.4 |
| 20260504222520 | 64 | 162 | 3.5 | 13.0 | 0.00 | 0.00 | 0.00 | 41 | 1035.4 |
| 20260504222020 | 65 | 149 | 3.5 | 13.0 | 0.00 | 0.00 | 0.00 | 40 | 1035.4 |
| 20260504221519 | 65 | 164 | 2.6 | 13.0 | 0.00 | 0.00 | 0.00 | 40 | 1035.4 |
| 20260504221017 | 66 | 278 | 5.2 | 8.7 | 0.00 | 0.00 | 0.00 | 40 | 1035.4 |
| 20260504215513 | 66 | 171 | 2.6 | 11.3 | 0.00 | 0.00 | 0.00 | 39 | 1035.8 |
| 20260504215013 | 66 | 271 | 2.6 | 9.6 | 0.00 | 0.00 | 0.00 | 38 | 1035.4 |
| 20260504214509 | 66 | 145 | 3.5 | 13.9 | 0.00 | 0.00 | 0.00 | 38 | 1035.4 |
| 20260504213506 | 67 | 286 | 3.5 | 11.3 | 0.00 | 0.00 | 0.00 | 39 | 1035.4 |
| 20260504213006 | 67 | 223 | 3.5 | 9.6 | 0.00 | 0.00 | 0.00 | 39 | 1035.4 |
| 20260504212502 | 67 | 221 | 5.2 | 9.6 | 0.00 | 0.00 | 0.00 | 39 | 1035.1 |
| 20260504212004 | 67 | 92 | 1.7 | 9.6 | 0.00 | 0.00 | 0.00 | 38 | 1035.1 |
| 20260504211500 | 67 | 163 | 4.3 | 13.0 | 0.00 | 0.00 | 0.00 | 38 | 1035.4 |
| 20260504211001 | 67 | 252 | 7.8 | 13.9 | 0.00 | 0.00 | 0.00 | 38 | 1035.4 |
| 20260504210457 | 68 | 257 | 8.7 | 13.9 | 0.00 | 0.00 | 0.00 | 37 | 1035.1 |
| 20260504205957 | 68 | 271 | 5.2 | 11.3 | 0.00 | 0.00 | 0.00 | 37 | 1035.1 |
| 20260504205455 | 68 | 169 | 1.7 | 9.6 | 0.00 | 0.00 | 0.00 | 37 | 1035.4 |
| 20260504204954 | 68 | 296 | 3.5 | 9.6 | 0.00 | 0.00 | 0.00 | 37 | 1035.1 |
| 20260504204452 | 68 | 161 | 1.7 | 12.2 | 0.00 | 0.00 | 0.00 | 37 | 1035.1 |
| 20260504203951 | 67 | 148 | 1.7 | 12.2 | 0.00 | 0.00 | 0.00 | 38 | 1035.4 |
| 20260504203449 | 68 | 252 | 2.6 | 11.3 | 0.00 | 0.00 | 0.00 | 36 | 1035.1 |
| 20260504202950 | 68 | 159 | 3.5 | 9.6 | 0.00 | 0.00 | 0.00 | 36 | 1035.1 |
| 20260504202446 | 68 | 300 | 0.9 | 9.6 | 0.00 | 0.00 | 0.00 | 35 | 1034.8 |
| 20260504201946 | 68 | 198 | 3.5 | 11.3 | 0.00 | 0.00 | 0.00 | 34 | 1035.1 |
| 20260504201443 | 69 | 279 | 7.8 | 11.3 | 0.00 | 0.00 | 0.00 | 34 | 1034.8 |
| 20260504200943 | 68 | 219 | 5.2 | 11.3 | 0.00 | 0.00 | 0.00 | 35 | 1035.1 |
| 20260504200441 | 69 | 286 | 7.8 | 9.6 | 0.00 | 0.00 | 0.00 | 34 | 1035.1 |
| 20260504195940 | 69 | 167 | 3.5 | 8.7 | 0.00 | 0.00 | 0.00 | 34 | 1035.1 |
| 20260504194435 | 69 | 172 | 3.5 | 13.9 | 0.00 | 0.00 | 0.00 | 32 | 1035.1 |
| 20260504193934 | 69 | 141 | 1.7 | 13.9 | 0.00 | 0.00 | 0.00 | 32 | 1035.1 |
| 20260504192932 | 70 | 275 | 0.9 | 15.6 | 0.00 | 0.00 | 0.00 | 31 | 1035.4 |
| 20260504192429 | 69 | 186 | 6.1 | 15.6 | 0.00 | 0.00 | 0.00 | 31 | 1035.1 |
| 20260504191930 | 70 | 262 | 3.5 | 13.9 | 0.00 | 0.00 | 0.00 | 29 | 1035.1 |
| 20260504191427 | 71 | 253 | 3.5 | 12.2 | 0.00 | 0.00 | 0.00 | 29 | 1035.1 |
| 20260504190925 | 71 | 192 | 2.6 | 12.2 | 0.00 | 0.00 | 0.00 | 30 | 1035.1 |
| 20260504190424 | 70 | 189 | 1.7 | 7.0 | 0.00 | 0.00 | 0.00 | 29 | 1035.1 |
| 20260504185922 | 70 | 319 | 3.5 | 9.6 | 0.00 | 0.00 | 0.00 | 29 | 1035.1 |
| 20260504185418 | 69 | 57 | 3.5 | 9.6 | 0.00 | 0.00 | 0.00 | 28 | 1035.4 |
| 20260504184917 | 69 | 278 | 3.5 | 9.6 | 0.00 | 0.00 | 0.00 | 28 | 1035.4 |
| 20260504184414 | 70 | 264 | 7.0 | 13.9 | 0.00 | 0.00 | 0.00 | 28 | 1035.4 |
| 20260504183914 | 69 | 179 | 4.3 | 13.9 | 0.00 | 0.00 | 0.00 | 28 | 1035.4 |
| 20260504182912 | 69 | 220 | 5.2 | 13.0 | 0.00 | 0.00 | 0.00 | 28 | 1035.4 |
| 20260504182410 | 69 | 230 | 9.6 | 13.0 | 0.00 | 0.00 | 0.00 | 28 | 1035.4 |
| 20260504181406 | 70 | 280 | 5.2 | 11.3 | 0.00 | 0.00 | 0.00 | 28 | 1035.4 |
| 20260504180904 | 69 | 233 | 5.2 | 12.2 | 0.00 | 0.00 | 0.00 | 27 | 1036.1 |
| 20260504180405 | 69 | 164 | 2.6 | 13.9 | 0.00 | 0.00 | 0.00 | 28 | 1035.8 |
| 20260504175901 | 69 | 232 | 6.1 | 13.9 | 0.00 | 0.00 | 0.00 | 28 | 1035.8 |
| 20260504175401 | 70 | 158 | 0.9 | 13.0 | 0.00 | 0.00 | 0.00 | 27 | 1035.8 |
| 20260504174859 | 69 | 77 | 1.7 | 13.0 | 0.00 | 0.00 | 0.00 | 28 | 1035.8 |
| 20260504174357 | 70 | 229 | 5.2 | 12.2 | 0.00 | 0.00 | 0.00 | 27 | 1035.8 |
| 20260504173856 | 69 | 129 | 2.6 | 12.2 | 0.00 | 0.00 | 0.00 | 28 | 1035.8 |
| 20260504173354 | 70 | 1 | 6.1 | 14.8 | 0.00 | 0.00 | 0.00 | 27 | 1035.8 |
| 20260504172853 | 70 | 213 | 4.3 | 9.6 | 0.00 | 0.00 | 0.00 | 26 | 1035.8 |
| 20260504172351 | 69 | 185 | 2.6 | 13.0 | 0.00 | 0.00 | 0.00 | 29 | 1035.8 |
| 20260504171852 | 69 | 263 | 1.7 | 13.0 | 0.00 | 0.00 | 0.00 | 28 | 1035.8 |
| 20260504171349 | 69 | 21 | 2.6 | 12.2 | 0.00 | 0.00 | 0.00 | 27 | 1035.8 |
| 20260504170849 | 69 | 165 | 6.1 | 13.0 | 0.00 | 0.00 | 0.00 | 27 | 1035.8 |
| 20260504160328 | 69 | 197 | 7.8 | 14.8 | 0.00 | 0.00 | 0.00 | 27 | 1036.8 |
| 20260504150812 | 68 | 244 | 3.5 | 21.7 | 0.00 | 0.00 | 0.00 | 30 | 1037.1 |
| 20260504150311 | 67 | 256 | 7.8 | 21.7 | 0.00 | 0.00 | 0.00 | 31 | 1037.1 |
| 20260504141256 | 66 | 102 | 1.7 | 15.6 | 0.00 | 0.00 | 0.00 | 33 | 1037.8 |
| 20260504140755 | 65 | 188 | 2.6 | 16.5 | 0.00 | 0.00 | 0.00 | 34 | 1037.8 |
| 20260504140253 | 65 | 257 | 3.5 | 16.5 | 0.00 | 0.00 | 0.00 | 34 | 1038.1 |
| 20260504130737 | 62 | 242 | 10.4 | 14.8 | 0.00 | 0.00 | 0.00 | 37 | 1038.1 |
| 20260504130236 | 60 | 193 | 7.8 | 12.2 | 0.00 | 0.00 | 0.00 | 39 | 1038.1 |
| 20260504120229 | 55 | 328 | 7.8 | 13.0 | 0.00 | 0.00 | 0.00 | 44 | 1038.1 |
| 20260504110700 | 50 | 265 | 2.6 | 6.1 | 0.00 | 0.00 | 0.00 | 50 | 1038.1 |
| 20260504110200 | 49 | 138 | 1.7 | 7.8 | 0.00 | 0.00 | 0.00 | 52 | 1038.5 |
| 20260504100140 | 48 | 10 | 0.9 | 7.0 | 0.00 | 0.00 | 0.00 | 52 | 1037.8 |
| 20260504081611 | 47 | 139 | 0.9 | 5.2 | 0.00 | 0.00 | 0.00 | 49 | 1037.5 |
| 20260504080113 | 47 | 141 | 0.0 | 2.6 | 0.00 | 0.00 | 0.00 | 47 | 1037.8 |
| 20260504050513 | 44 | 139 | 0.0 | 0.0 | 0.00 | 0.00 | 0.00 | 52 | 1037.8 |
| 20260504050009 | 44 | 210 | 0.0 | 0.0 | 0.00 | 0.00 | 0.00 | 51 | 1037.8 |
| 20260504045509 | 44 | 144 | 0.0 | 0.0 | 0.00 | 0.00 | 0.00 | 51 | 1037.8 |
| 20260504045006 | 44 | 113 | 0.0 | 0.0 | 0.00 | 0.00 | 0.00 | 51 | 1037.8 |
| 20260504044506 | 44 | 142 | 0.0 | 0.0 | 0.00 | 0.00 | 0.00 | 51 | 1038.1 |
| 20260504044003 | 44 | 136 | 0.0 | 0.0 | 0.00 | 0.00 | 0.00 | 50 | 1037.8 |
| 20260504043502 | 45 | 149 | 0.0 | 0.0 | 0.00 | 0.00 | 0.00 | 51 | 1037.8 |
| 20260504043002 | 45 | 148 | 0.0 | 0.0 | 0.00 | 0.00 | 0.00 | 50 | 1037.8 |
| 20260504042459 | 45 | 137 | 0.0 | 0.9 | 0.00 | 0.00 | 0.00 | 50 | 1037.8 |
| 20260504041957 | 45 | 142 | 0.0 | 0.9 | 0.00 | 0.00 | 0.00 | 49 | 1037.5 |
| 20260504040955 | 45 | 165 | 0.0 | 0.0 | 0.00 | 0.00 | 0.00 | 49 | 1037.8 |
| 20260504040454 | 45 | 142 | 0.0 | 0.0 | 0.00 | 0.00 | 0.00 | 50 | 1037.8 |
| 20260504035952 | 45 | 145 | 0.0 | 0.0 | 0.00 | 0.00 | 0.00 | 49 | 1037.5 |
| 20260504035451 | 45 | 181 | 0.0 | 0.0 | 0.00 | 0.00 | 0.00 | 50 | 1037.5 |
| 20260504034449 | 45 | 160 | 0.0 | 2.6 | 0.00 | 0.00 | 0.00 | 50 | 1037.5 |
| 20260504033945 | 45 | 138 | 0.9 | 3.5 | 0.00 | 0.00 | 0.00 | 49 | 1037.5 |
| 20260504033445 | 44 | 145 | 0.0 | 3.5 | 0.00 | 0.00 | 0.00 | 51 | 1037.5 |
| 20260504032943 | 44 | 149 | 0.0 | 0.0 | 0.00 | 0.00 | 0.00 | 51 | 1037.5 |
| 20260504032441 | 44 | 118 | 0.0 | 0.0 | 0.00 | 0.00 | 0.00 | 51 | 1037.5 |
| 20260504031940 | 44 | 195 | 0.0 | 0.0 | 0.00 | 0.00 | 0.00 | 52 | 1037.5 |
| 20260504031439 | 44 | 146 | 0.0 | 0.0 | 0.00 | 0.00 | 0.00 | 52 | 1037.1 |
| 20260504030937 | 44 | 146 | 0.0 | 0.9 | 0.00 | 0.00 | 0.00 | 52 | 1037.1 |
| 20260504025933 | 43 | 203 | 0.9 | 1.7 | 0.00 | 0.00 | 0.00 | 52 | 1037.1 |
| 20260504025434 | 43 | 158 | 0.9 | 1.7 | 0.00 | 0.00 | 0.00 | 55 | 1037.1 |
| 20260504024931 | 43 | 151 | 0.0 | 1.7 | 0.00 | 0.00 | 0.00 | 54 | 1037.1 |